| time (UTC) | temp F | wind direction | speed knots | gust knots | rain 1hr in | rain 24hr in | rain mn in | humidity % | barometer mb |
| 20260503050058 | 48 | 264 | 10.4 | 12.2 | 0.00 | 0.00 | 0.00 | 54 | 868.1 |
| 20260503040112 | 48 | 263 | 10.4 | 13.9 | 0.00 | 0.00 | 0.00 | 54 | 868.1 |
| 20260503030117 | 49 | 265 | 8.7 | 12.2 | 0.00 | 0.00 | 0.00 | 52 | 867.3 |
| 20260503020111 | 48 | 283 | 10.4 | 13.0 | 0.00 | 0.00 | 0.00 | 55 | 867.3 |
| 20260503010106 | 52 | 154 | 4.3 | 8.7 | 0.00 | 0.00 | 0.00 | 39 | 867.7 |
| 20260503000355 | 54 | 101 | 7.0 | 12.2 | 0.00 | 0.00 | 0.00 | 39 | 867.7 |
| 20260502230108 | 57 | 145 | 1.7 | 4.3 | 0.00 | 0.00 | 0.00 | 40 | 868.2 |
| 20260502220100 | 56 | 145 | 0.9 | 7.8 | 0.00 | 0.00 | 0.00 | 42 | 868.8 |
| 20260502210117 | 54 | 145 | 6.1 | 9.6 | 0.00 | 0.00 | 0.00 | 42 | 869.1 |
| 20260502200105 | 52 | 78 | 8.7 | 11.3 | 0.00 | 0.00 | 0.00 | 44 | 869.0 |
| 20260502190100 | 51 | 84 | 6.1 | 11.3 | 0.00 | 0.00 | 0.00 | 39 | 869.3 |
| 20260502170118 | 50 | 115 | 4.3 | 7.8 | 0.00 | 0.00 | 0.00 | 41 | 869.1 |
| 20260502150118 | 47 | 196 | 6.1 | 7.0 | 0.00 | 0.00 | 0.00 | 38 | 868.9 |
| 20260502140112 | 45 | 212 | 7.0 | 9.6 | 0.00 | 0.00 | 0.00 | 39 | 868.8 |
| 20260502130110 | 45 | 235 | 6.1 | 8.7 | 0.00 | 0.00 | 0.00 | 44 | 868.8 |
| 20260502110055 | 46 | 187 | 4.3 | 6.1 | 0.00 | 0.00 | 0.00 | 43 | 868.8 |
| 20260502100113 | 45 | 209 | 5.2 | 8.7 | 0.00 | 0.00 | 0.00 | 50 | 868.9 |
| 20260502090110 | 44 | 167 | 4.3 | 7.8 | 0.00 | 0.00 | 0.00 | 56 | 869.0 |
| 20260502070140 | 45 | 200 | 6.1 | 7.0 | 0.00 | 0.00 | 0.00 | 46 | 869.0 |
| 20260502060112 | 44 | 234 | 3.5 | 5.2 | 0.00 | 0.00 | 0.00 | 46 | 869.0 |